Tracking 34747 objects as of 16-Jul-2026
HD Live streaming from Space Station
objects crossing your sky now

STARLINK-11483

Track STARLINK-11483 now!
10-day predictions
STARLINK-11483 is classified as:


NORAD ID: 62223
Int'l Code: 2024-231F
Perigee: 366.1 km
Apogee: 367.6 km
Inclination: 53.2 °
Period: 91.7 minutes
Semi major axis: 6737 km
RCS: Unknown
Launch date: December 5, 2024
Source: United States (US)
Launch site: AIR FORCE WESTERN TEST RANGE (AFWTR)
Your satellite tracking list
Your tracking list is empty




NASA's NSSDC Master Catalog

Two Line Element Set (TLE):
1 62223U 24231F   26197.16451442  .00136956  00000-0  11165-2 0  9995
2 62223  53.1570 187.6581 0001171  30.0433 330.0652 15.69714212 93590
Source of the keplerian elements: AFSPC